contact:dominique.lefevre@mio.osupytheas.fr, maurice.libes@osupytheas.fr, didier.mallarino@osupytheas.fr
Project:EMSO http://www.emso-fr.org/EMSO-France
Depth: 2436.0 m
Title:EMSO Ligure Ouest : Data MII capteur MICROCAT
DateTime_Computer,Latitude,Longitude,Temperature,Conductivity,Pressure,DateTime_Instrument
DateTime_Computer,Latitude,Longitude,degC,S m-1,dbar,DateTime_Instrument
2023-01-24T13:13:08Z,42.805,6.029,13.3034,4.60111,2470.74,2023-1-24T15:19:33Z
2023-01-24T13:16:11Z,42.805,6.029,13.3029,4.60122,2470.74,2023-1-24T15:22:36Z
2023-01-24T13:19:14Z,42.805,6.029,13.3035,4.60139,2470.717,2023-1-24T15:25:39Z
2023-01-24T13:22:17Z,42.805,6.029,13.3029,4.60122,2470.74,2023-1-24T15:28:42Z
2023-01-24T13:25:20Z,42.805,6.029,13.3038,4.60102,2470.73,2023-1-24T15:31:45Z
2023-01-24T13:28:24Z,42.805,6.029,13.3037,4.60140,2470.73,2023-1-24T15:34:48Z
2023-01-24T13:31:27Z,42.805,6.029,13.3037,4.60150,2470.73,2023-1-24T15:37:51Z
2023-01-24T13:34:30Z,42.805,6.029,13.3034,4.60136,2470.707,2023-1-24T15:40:55Z
2023-01-24T13:37:33Z,42.805,6.029,13.3031,4.60143,2470.73,2023-1-24T15:43:58Z
2023-01-24T13:40:36Z,42.805,6.029,13.3024,4.60122,2470.67,2023-1-24T15:47:01Z
2023-01-24T13:43:39Z,42.805,6.029,13.3039,4.60128,2470.707,2023-1-24T15:50:04Z
2023-01-24T13:46:42Z,42.805,6.029,13.3027,4.60120,2470.717,2023-1-24T15:53:07Z
2023-01-24T13:49:45Z,42.805,6.029,13.3038,4.60129,2470.717,2023-1-24T15:56:10Z
2023-01-24T13:52:48Z,42.805,6.029,13.3028,4.60106,2470.717,2023-1-24T15:59:13Z
2023-01-24T13:55:51Z,42.805,6.029,13.3029,4.60131,2470.693,2023-1-24T16:02:16Z
2023-01-24T13:58:54Z,42.805,6.029,13.3027,4.60119,2470.707,2023-1-24T16:05:19Z
2023-01-24T14:01:57Z,42.805,6.029,13.3034,4.60121,2470.707,2023-1-24T16:08:22Z
2023-01-24T14:05:01Z,42.805,6.029,13.3031,4.60117,2470.684,2023-1-24T16:11:25Z
2023-01-24T14:08:04Z,42.805,6.029,13.3037,4.60147,2470.67,2023-1-24T16:14:28Z
2023-01-24T14:11:07Z,42.805,6.029,13.3039,4.60140,2470.661,2023-1-24T16:17:32Z
2023-01-24T14:14:10Z,42.805,6.029,13.3031,4.60116,2470.67,2023-1-24T16:20:35Z
2023-01-24T14:17:13Z,42.805,6.029,13.3024,4.60110,2470.717,2023-1-24T16:23:38Z
2023-01-24T14:20:16Z,42.805,6.029,13.3028,4.60102,2470.684,2023-1-24T16:26:41Z
2023-01-24T14:23:19Z,42.805,6.029,13.3027,4.60110,2470.684,2023-1-24T16:29:44Z
2023-01-24T14:26:22Z,42.805,6.029,13.3025,4.60098,2470.646,2023-1-24T16:32:47Z
2023-01-24T14:29:25Z,42.805,6.029,13.3027,4.60119,2470.67,2023-1-24T16:35:50Z
2023-01-24T14:32:28Z,42.805,6.029,13.3024,4.60104,2470.67,2023-1-24T16:38:53Z
2023-01-24T14:35:31Z,42.805,6.029,13.3026,4.60101,2470.661,2023-1-24T16:41:56Z
2023-01-24T14:38:35Z,42.805,6.029,13.3026,4.60119,2470.646,2023-1-24T16:44:59Z
2023-01-24T14:41:38Z,42.805,6.029,13.3030,4.60109,2470.661,2023-1-24T16:48:03Z
2023-01-24T14:44:41Z,42.805,6.029,13.3028,4.60111,2470.67,2023-1-24T16:51:06Z
2023-01-24T14:47:44Z,42.805,6.029,13.3030,4.60114,2470.646,2023-1-24T16:54:09Z
2023-01-24T14:50:47Z,42.805,6.029,13.3029,4.60099,2470.624,2023-1-24T16:57:12Z
2023-01-24T14:53:50Z,42.805,6.029,13.3033,4.60117,2470.637,2023-1-24T17:00:15Z
2023-01-24T14:56:53Z,42.805,6.029,13.3021,4.60087,2470.6,2023-1-24T17:03:18Z
2023-01-24T14:59:56Z,42.805,6.029,13.3026,4.60097,2470.646,2023-1-24T17:06:21Z
2023-01-24T15:02:59Z,42.805,6.029,13.3032,4.60101,2470.6,2023-1-24T17:09:24Z
2023-01-24T15:06:02Z,42.805,6.029,13.3029,4.60092,2470.637,2023-1-24T17:12:27Z
2023-01-24T15:09:05Z,42.805,6.029,13.3035,4.60103,2470.6,2023-1-24T17:15:30Z
2023-01-24T15:12:09Z,42.805,6.029,13.3039,4.60104,2470.637,2023-1-24T17:18:33Z
2023-01-24T15:15:12Z,42.805,6.029,13.3030,4.60119,2470.624,2023-1-24T17:21:36Z
2023-01-24T15:18:15Z,42.805,6.029,13.3035,4.60106,2470.624,2023-1-24T17:24:40Z
2023-01-24T15:21:18Z,42.805,6.029,13.3030,4.60129,2470.624,2023-1-24T17:27:43Z
2023-01-24T15:24:21Z,42.805,6.029,13.3024,4.60104,2470.61,2023-1-24T17:30:46Z
2023-01-24T15:27:24Z,42.805,6.029,13.3033,4.60120,2470.637,2023-1-24T17:33:49Z
2023-01-24T15:30:27Z,42.805,6.029,13.3042,4.60126,2470.624,2023-1-24T17:36:52Z
2023-01-24T15:33:30Z,42.805,6.029,13.3037,4.60122,2470.6,2023-1-24T17:39:55Z
2023-01-24T15:36:33Z,42.805,6.029,13.3025,4.60114,2470.624,2023-1-24T17:42:58Z
2023-01-24T15:39:36Z,42.805,6.029,13.3030,4.60114,2470.6,2023-1-24T17:46:01Z
2023-01-24T15:42:39Z,42.805,6.029,13.3036,4.60097,2470.624,2023-1-24T17:49:04Z
2023-01-24T15:45:43Z,42.805,6.029,13.3031,4.60132,2470.577,2023-1-24T17:52:07Z
2023-01-24T15:48:46Z,42.805,6.029,13.3029,4.60108,2470.6,2023-1-24T17:55:11Z
2023-01-24T15:51:49Z,42.805,6.029,13.3037,4.60119,2470.6,2023-1-24T17:58:14Z
2023-01-24T15:54:52Z,42.805,6.029,13.3034,4.60111,2470.6,2023-1-24T18:01:17Z
2023-01-24T15:57:55Z,42.805,6.029,13.3034,4.60118,2470.614,2023-1-24T18:04:20Z
2023-01-24T16:00:58Z,42.805,6.029,13.3036,4.60101,2470.6,2023-1-24T18:07:23Z
2023-01-24T16:04:01Z,42.805,6.029,13.3036,4.60114,2470.6,2023-1-24T18:10:26Z
2023-01-24T16:07:04Z,42.805,6.029,13.3023,4.60108,2470.591,2023-1-24T18:13:29Z
2023-01-24T16:10:07Z,42.805,6.029,13.3032,4.60109,2470.624,2023-1-24T18:16:32Z
2023-01-24T16:13:10Z,42.805,6.029,13.3039,4.60108,2470.646,2023-1-24T18:19:35Z
2023-01-24T16:16:13Z,42.805,6.029,13.3043,4.60135,2470.624,2023-1-24T18:22:38Z
2023-01-24T16:19:17Z,42.805,6.029,13.3033,4.60115,2470.577,2023-1-24T18:25:41Z
2023-01-24T16:22:20Z,42.805,6.029,13.3034,4.60114,2470.6,2023-1-24T18:28:45Z
2023-01-24T16:25:23Z,42.805,6.029,13.3025,4.60110,2470.6,2023-1-24T18:31:48Z
2023-01-24T16:28:26Z,42.805,6.029,13.3027,4.60095,2470.6,2023-1-24T18:34:51Z
2023-01-24T16:31:29Z,42.805,6.029,13.3029,4.60102,2470.614,2023-1-24T18:37:54Z
2023-01-24T16:34:32Z,42.805,6.029,13.3028,4.60114,2470.624,2023-1-24T18:40:57Z
2023-01-24T16:37:35Z,42.805,6.029,13.3032,4.60122,2470.577,2023-1-24T18:44:00Z
2023-01-24T16:40:38Z,42.805,6.029,13.3029,4.60120,2470.624,2023-1-24T18:47:03Z
2023-01-24T16:43:41Z,42.805,6.029,13.3032,4.60112,2470.591,2023-1-24T18:50:06Z
2023-01-24T16:46:44Z,42.805,6.029,13.3032,4.60100,2470.567,2023-1-24T18:53:09Z
2023-01-24T16:49:47Z,42.805,6.029,13.3029,4.60104,2470.591,2023-1-24T18:56:12Z
2023-01-24T16:52:51Z,42.805,6.029,13.3041,4.60123,2470.614,2023-1-24T18:59:15Z
2023-01-24T16:55:54Z,42.805,6.029,13.3029,4.60114,2470.6,2023-1-24T19:02:19Z
2023-01-24T16:58:57Z,42.805,6.029,13.3038,4.60107,2470.614,2023-1-24T19:05:22Z
2023-01-24T17:02:00Z,42.805,6.029,13.3031,4.60117,2470.6,2023-1-24T19:08:25Z
2023-01-24T17:05:03Z,42.805,6.029,13.3029,4.60123,2470.577,2023-1-24T19:11:28Z
2023-01-24T17:08:06Z,42.805,6.029,13.3031,4.60114,2470.591,2023-1-24T19:14:31Z
2023-01-24T17:11:09Z,42.805,6.029,13.3026,4.60122,2470.624,2023-1-24T19:17:34Z
2023-01-24T17:14:12Z,42.805,6.029,13.3024,4.60097,2470.624,2023-1-24T19:20:37Z
2023-01-24T17:17:15Z,42.805,6.029,13.3029,4.60094,2470.6,2023-1-24T19:23:40Z
2023-01-24T17:20:18Z,42.805,6.029,13.3025,4.60094,2470.6,2023-1-24T19:26:43Z
2023-01-24T17:23:21Z,42.805,6.029,13.3048,4.60103,2470.637,2023-1-24T19:29:46Z
2023-01-24T17:26:25Z,42.805,6.029,13.3026,4.60104,2470.624,2023-1-24T19:32:50Z
2023-01-24T17:29:28Z,42.805,6.029,13.3034,4.60119,2470.624,2023-1-24T19:35:53Z
2023-01-24T17:32:31Z,42.805,6.029,13.3035,4.60110,2470.661,2023-1-24T19:38:56Z
2023-01-24T17:35:34Z,42.805,6.029,13.3032,4.60120,2470.591,2023-1-24T19:41:59Z
2023-01-24T17:38:37Z,42.805,6.029,13.3027,4.60127,2470.624,2023-1-24T19:45:02Z
2023-01-24T17:41:40Z,42.805,6.029,13.3026,4.60126,2470.661,2023-1-24T19:48:05Z
2023-01-24T17:44:43Z,42.805,6.029,13.3030,4.60116,2470.624,2023-1-24T19:51:08Z
2023-01-24T17:47:46Z,42.805,6.029,13.3025,4.60112,2470.614,2023-1-24T19:54:11Z
2023-01-24T17:50:49Z,42.805,6.029,13.3026,4.60099,2470.624,2023-1-24T19:57:14Z
2023-01-24T17:53:52Z,42.805,6.029,13.3028,4.60110,2470.637,2023-1-24T20:00:17Z
2023-01-24T17:56:55Z,42.805,6.029,13.3023,4.60129,2470.624,2023-1-24T20:03:20Z
2023-01-24T17:59:59Z,42.805,6.029,13.3022,4.60102,2470.6,2023-1-24T20:06:24Z
2023-01-24T18:03:02Z,42.805,6.029,13.3025,4.60106,2470.646,2023-1-24T20:09:27Z
2023-01-24T18:06:05Z,42.805,6.029,13.3026,4.60116,2470.67,2023-1-24T20:12:30Z
2023-01-24T18:09:08Z,42.805,6.029,13.3027,4.60118,2470.693,2023-1-24T20:15:33Z
2023-01-24T18:12:11Z,42.805,6.029,13.3029,4.60117,2470.624,2023-1-24T20:18:36Z
2023-01-24T18:15:14Z,42.805,6.029,13.3027,4.60104,2470.624,2023-1-24T20:21:39Z
2023-01-24T18:18:17Z,42.805,6.029,13.3028,4.60117,2470.684,2023-1-24T20:24:42Z
2023-01-24T18:21:20Z,42.805,6.029,13.3026,4.60121,2470.67,2023-1-24T20:27:45Z
2023-01-24T18:24:23Z,42.805,6.029,13.3026,4.60104,2470.646,2023-1-24T20:30:48Z
2023-01-24T18:27:26Z,42.805,6.029,13.3026,4.60129,2470.646,2023-1-24T20:33:51Z
2023-01-24T18:30:29Z,42.805,6.029,13.3024,4.60129,2470.684,2023-1-24T20:36:54Z
2023-01-24T18:33:33Z,42.805,6.029,13.3022,4.60116,2470.646,2023-1-24T20:39:58Z
2023-01-24T18:36:36Z,42.805,6.029,13.3027,4.60118,2470.67,2023-1-24T20:43:01Z
2023-01-24T18:39:39Z,42.805,6.029,13.3031,4.60126,2470.661,2023-1-24T20:46:04Z
2023-01-24T18:42:42Z,42.805,6.029,13.3026,4.60126,2470.661,2023-1-24T20:49:07Z
2023-01-24T18:45:45Z,42.805,6.029,13.3027,4.60133,2470.661,2023-1-24T20:52:10Z
2023-01-24T18:48:48Z,42.805,6.029,13.3031,4.60102,2470.693,2023-1-24T20:55:13Z
2023-01-24T18:51:51Z,42.805,6.029,13.3029,4.60135,2470.646,2023-1-24T20:58:16Z
2023-01-24T18:54:54Z,42.805,6.029,13.3039,4.60116,2470.67,2023-1-24T21:01:19Z
2023-01-24T18:57:57Z,42.805,6.029,13.3032,4.60110,2470.67,2023-1-24T21:04:22Z
2023-01-24T19:01:00Z,42.805,6.029,13.3024,4.60099,2470.717,2023-1-24T21:07:25Z
2023-01-24T19:04:03Z,42.805,6.029,13.3027,4.60099,2470.693,2023-1-24T21:10:28Z
2023-01-24T19:07:07Z,42.805,6.029,13.3027,4.60110,2470.707,2023-1-24T21:13:32Z
2023-01-24T19:10:10Z,42.805,6.029,13.3025,4.60114,2470.717,2023-1-24T21:16:35Z
2023-01-24T19:13:13Z,42.805,6.029,13.3037,4.60142,2470.693,2023-1-24T21:19:38Z
2023-01-24T19:16:16Z,42.805,6.029,13.3046,4.60149,2470.684,2023-1-24T21:22:41Z
2023-01-24T19:19:19Z,42.805,6.029,13.3045,4.60138,2470.707,2023-1-24T21:25:44Z
2023-01-24T19:22:22Z,42.805,6.029,13.3028,4.60109,2470.693,2023-1-24T21:28:47Z
2023-01-24T19:25:25Z,42.805,6.029,13.3028,4.60111,2470.707,2023-1-24T21:31:50Z
2023-01-24T19:28:28Z,42.805,6.029,13.3022,4.60098,2470.693,2023-1-24T21:34:53Z
2023-01-24T19:31:31Z,42.805,6.029,13.3026,4.60087,2470.693,2023-1-24T21:37:56Z
2023-01-24T19:34:34Z,42.805,6.029,13.3032,4.60131,2470.679,2023-1-24T21:40:59Z
2023-01-24T19:37:38Z,42.805,6.029,13.3038,4.60125,2470.693,2023-1-24T21:44:03Z
2023-01-24T19:40:41Z,42.805,6.029,13.3031,4.60129,2470.67,2023-1-24T21:47:06Z
2023-01-24T19:43:44Z,42.805,6.029,13.3038,4.60120,2470.754,2023-1-24T21:50:09Z
2023-01-24T19:46:47Z,42.805,6.029,13.3030,4.60137,2470.693,2023-1-24T21:53:12Z
2023-01-24T19:49:50Z,42.805,6.029,13.3039,4.60106,2470.707,2023-1-24T21:56:15Z
2023-01-24T19:52:53Z,42.805,6.029,13.3029,4.60115,2470.67,2023-1-24T21:59:18Z
2023-01-24T19:55:56Z,42.805,6.029,13.3032,4.60097,2470.717,2023-1-24T22:02:21Z
2023-01-24T19:58:59Z,42.805,6.029,13.3025,4.60084,2470.74,2023-1-24T22:05:24Z
2023-01-24T20:02:02Z,42.805,6.029,13.3025,4.60088,2470.717,2023-1-24T22:08:27Z
2023-01-24T20:05:05Z,42.805,6.029,13.3026,4.60111,2470.693,2023-1-24T22:11:30Z
2023-01-24T20:08:08Z,42.805,6.029,13.3028,4.60119,2470.717,2023-1-24T22:14:33Z
2023-01-24T20:11:11Z,42.805,6.029,13.3026,4.60116,2470.74,2023-1-24T22:17:36Z
2023-01-24T20:14:15Z,42.805,6.029,13.3035,4.60099,2470.754,2023-1-24T22:20:40Z
2023-01-24T20:17:18Z,42.805,6.029,13.3031,4.60104,2470.717,2023-1-24T22:23:43Z
2023-01-24T20:20:21Z,42.805,6.029,13.3021,4.60094,2470.656,2023-1-24T22:26:46Z
2023-01-24T20:23:24Z,42.805,6.029,13.3040,4.60120,2470.707,2023-1-24T22:29:49Z
2023-01-24T20:26:27Z,42.805,6.029,13.3034,4.60124,2470.717,2023-1-24T22:32:52Z
2023-01-24T20:29:30Z,42.805,6.029,13.3024,4.60101,2470.707,2023-1-24T22:35:55Z
2023-01-24T20:32:33Z,42.805,6.029,13.3030,4.60098,2470.74,2023-1-24T22:38:58Z
2023-01-24T20:35:36Z,42.805,6.029,13.3030,4.60122,2470.717,2023-1-24T22:42:01Z
2023-01-24T20:38:39Z,42.805,6.029,13.3031,4.60119,2470.74,2023-1-24T22:45:04Z
2023-01-24T20:41:42Z,42.805,6.029,13.3024,4.60102,2470.74,2023-1-24T22:48:07Z
2023-01-24T20:44:46Z,42.805,6.029,13.3021,4.60104,2470.754,2023-1-24T22:51:11Z
2023-01-24T20:47:49Z,42.805,6.029,13.3024,4.60097,2470.73,2023-1-24T22:54:14Z
2023-01-24T20:50:52Z,42.805,6.029,13.3040,4.60132,2470.684,2023-1-24T22:57:17Z
2023-01-24T20:53:55Z,42.805,6.029,13.3026,4.60105,2470.717,2023-1-24T23:00:20Z
2023-01-24T20:56:58Z,42.805,6.029,13.3040,4.60129,2470.754,2023-1-24T23:03:23Z
2023-01-24T21:00:01Z,42.805,6.029,13.3031,4.60103,2470.693,2023-1-24T23:06:26Z
2023-01-24T21:03:04Z,42.805,6.029,13.3024,4.60102,2470.717,2023-1-24T23:09:29Z
2023-01-24T21:06:07Z,42.805,6.029,13.3052,4.60144,2470.693,2023-1-24T23:12:32Z
2023-01-24T21:09:10Z,42.805,6.029,13.3034,4.60102,2470.693,2023-1-24T23:15:35Z
2023-01-24T21:12:13Z,42.805,6.029,13.3024,4.60117,2470.707,2023-1-24T23:18:38Z
2023-01-24T21:15:16Z,42.805,6.029,13.3024,4.60099,2470.74,2023-1-24T23:21:41Z
2023-01-24T21:18:20Z,42.805,6.029,13.3028,4.60120,2470.717,2023-1-24T23:24:45Z
2023-01-24T21:21:23Z,42.805,6.029,13.3035,4.60139,2470.693,2023-1-24T23:27:48Z
2023-01-24T21:24:26Z,42.805,6.029,13.3026,4.60112,2470.707,2023-1-24T23:30:51Z
2023-01-24T21:27:29Z,42.805,6.029,13.3023,4.60117,2470.717,2023-1-24T23:33:54Z
2023-01-24T21:30:32Z,42.805,6.029,13.3029,4.60106,2470.693,2023-1-24T23:36:57Z
2023-01-24T21:33:35Z,42.805,6.029,13.3031,4.60140,2470.67,2023-1-24T23:40:00Z
2023-01-24T21:36:38Z,42.805,6.029,13.3024,4.60122,2470.73,2023-1-24T23:43:03Z
2023-01-24T21:39:41Z,42.805,6.029,13.3032,4.60120,2470.73,2023-1-24T23:46:06Z
2023-01-24T21:42:44Z,42.805,6.029,13.3022,4.60134,2470.754,2023-1-24T23:49:09Z
2023-01-24T21:45:47Z,42.805,6.029,13.3034,4.60096,2470.73,2023-1-24T23:52:12Z
2023-01-24T21:48:50Z,42.805,6.029,13.3026,4.60103,2470.707,2023-1-24T23:55:16Z
2023-01-24T21:51:54Z,42.805,6.029,13.3031,4.60127,2470.67,2023-1-24T23:58:19Z
2023-01-24T21:54:57Z,42.805,6.029,13.3038,4.60142,2470.693,2023-1-25T00:01:22Z
2023-01-24T21:58:00Z,42.805,6.029,13.3040,4.60122,2470.693,2023-1-25T00:04:25Z
2023-01-24T22:01:03Z,42.805,6.029,13.3051,4.60139,2470.661,2023-1-25T00:07:28Z
2023-01-24T22:04:06Z,42.805,6.029,13.3046,4.60138,2470.684,2023-1-25T00:10:31Z
2023-01-24T22:07:09Z,42.805,6.029,13.3031,4.60134,2470.693,2023-1-25T00:13:34Z
2023-01-24T22:10:12Z,42.805,6.029,13.3037,4.60144,2470.67,2023-1-25T00:16:37Z
2023-01-24T22:13:15Z,42.805,6.029,13.3032,4.60116,2470.717,2023-1-25T00:19:40Z
2023-01-24T22:16:18Z,42.805,6.029,13.3032,4.60102,2470.67,2023-1-25T00:22:43Z
2023-01-24T22:19:21Z,42.805,6.029,13.3041,4.60122,2470.693,2023-1-25T00:25:46Z
2023-01-24T22:22:24Z,42.805,6.029,13.3049,4.60127,2470.67,2023-1-25T00:28:49Z
2023-01-24T22:25:27Z,42.805,6.029,13.3048,4.60131,2470.684,2023-1-25T00:31:53Z
2023-01-24T22:28:31Z,42.805,6.029,13.3035,4.60175,2470.661,2023-1-25T00:34:56Z
2023-01-24T22:31:34Z,42.805,6.029,13.3032,4.60143,2470.67,2023-1-25T00:37:59Z
2023-01-24T22:34:37Z,42.805,6.029,13.3042,4.60129,2470.67,2023-1-25T00:41:02Z
2023-01-24T22:37:40Z,42.805,6.029,13.3051,4.60125,2470.646,2023-1-25T00:44:05Z
2023-01-24T22:40:43Z,42.805,6.029,13.3034,4.60109,2470.661,2023-1-25T00:47:08Z
2023-01-24T22:43:46Z,42.805,6.029,13.3032,4.60119,2470.693,2023-1-25T00:50:11Z
2023-01-24T22:46:49Z,42.805,6.029,13.3031,4.60138,2470.684,2023-1-25T00:53:14Z
2023-01-24T22:49:52Z,42.805,6.029,13.3034,4.60105,2470.674,2023-1-25T00:56:17Z
2023-01-24T22:52:55Z,42.805,6.029,13.3027,4.60120,2470.646,2023-1-25T00:59:20Z
2023-01-24T22:55:58Z,42.805,6.029,13.3030,4.60111,2470.684,2023-1-25T01:02:23Z
2023-01-24T22:59:01Z,42.805,6.029,13.3037,4.60125,2470.67,2023-1-25T01:05:26Z
2023-01-24T23:02:04Z,42.805,6.029,13.3046,4.60170,2470.684,2023-1-25T01:08:30Z
2023-01-24T23:05:08Z,42.805,6.029,13.3036,4.60185,2470.661,2023-1-25T01:11:33Z
2023-01-24T23:08:11Z,42.805,6.029,13.3043,4.60166,2470.646,2023-1-25T01:14:36Z
2023-01-24T23:11:14Z,42.805,6.029,13.3034,4.60165,2470.67,2023-1-25T01:17:39Z
2023-01-24T23:14:17Z,42.805,6.029,13.3046,4.60136,2470.637,2023-1-25T01:20:42Z
2023-01-24T23:17:20Z,42.805,6.029,13.3061,4.60148,2470.637,2023-1-25T01:23:45Z
2023-01-24T23:20:23Z,42.805,6.029,13.3052,4.60150,2470.646,2023-1-25T01:26:48Z
2023-01-24T23:23:26Z,42.805,6.029,13.3053,4.60162,2470.67,2023-1-25T01:29:51Z
2023-01-24T23:26:29Z,42.805,6.029,13.3058,4.60154,2470.646,2023-1-25T01:32:54Z
2023-01-24T23:29:32Z,42.805,6.029,13.3049,4.60149,2470.646,2023-1-25T01:35:57Z
2023-01-24T23:32:35Z,42.805,6.029,13.3058,4.60179,2470.624,2023-1-25T01:39:00Z
2023-01-24T23:35:38Z,42.805,6.029,13.3062,4.60147,2470.646,2023-1-25T01:42:04Z
2023-01-24T23:38:41Z,42.805,6.029,13.3047,4.60155,2470.624,2023-1-25T01:45:07Z
2023-01-24T23:41:45Z,42.805,6.029,13.3054,4.60175,2470.637,2023-1-25T01:48:10Z
2023-01-24T23:44:48Z,42.805,6.029,13.3055,4.60156,2470.624,2023-1-25T01:51:13Z
2023-01-24T23:47:51Z,42.805,6.029,13.3051,4.60123,2470.637,2023-1-25T01:54:16Z
2023-01-24T23:50:54Z,42.805,6.029,13.3053,4.60133,2470.637,2023-1-25T01:57:19Z
2023-01-24T23:53:57Z,42.805,6.029,13.3058,4.60136,2470.624,2023-1-25T02:00:22Z
2023-01-24T23:57:00Z,42.805,6.029,13.3057,4.60135,2470.614,2023-1-25T02:03:25Z
